Cape Edgecumbe 25NM SSW of Cape Edgecumbe, AK (46084)

Conditions for Monday

Daily
Weekly
Monthly
Marine Data Graph
Ad Blocker Enabled

Marine & Boating Location Search

Enter a coastal zip code for marine weather.

General Information

Location: 56.6 North -136.101 West
Buoy Type: 6-meter NOMAD buoy
Buoy Hull: 6N24
Payload: ARES 4.4 payload
Owned by: NDBC
Windspeed: Measured by obtained from anemometer
Sea Surface: Measured by Intake
Note: Station 46084 ceased reporting usable data 01/08/2016. 

Weather and Wave Data

Time Temp Humidity Wind Dominant Wave Wind Wave Wave Swell Pressure
  Air
(°F)
Water
(°F)
  Dir Speed
(kts)
Speed
(mph)
Period
(sec)
Height
(ft)
Range
(ft)
Period
(sec)
Height
(ft)
Range
(ft)
Period
(sec)
Height
(ft)
Range
(ft)
Atmo.
(in)
Tend.
(in)
20:50 35 43 20 ESE 9.7 11.2 13 4.92 exactly 4.9 4 3.28 2.46 - 4.10 13 4.92 4.10 - 5.74 29.75 +0.01
21:50 35 43 18 East 9.7 11.2 13 4.27 exactly 4.3 5 3.28 2.46 - 4.10 13 3.28 2.46 - 4.10 29.77 +0.02
22:50 34 43 16 ESE 5.8 6.7 13 5.91 exactly 5.9 4 1.64 0.82 - 2.46 13 4.92 4.10 - 5.74 29.77 +0.02
23:50 34 43 15 East 7.8 8.9 13 4.27 exactly 4.3 4 1.64 0.82 - 2.46 13 3.28 2.46 - 4.10 29.76 +0.01
00:50 33 43 23 ENE 11.7 13.4 13 4.59 exactly 4.6 5 3.28 2.46 - 4.10 13 3.28 2.46 - 4.10 29.76 -
01:50 33 43 23 NE 9.7 11.2 13 5.25 exactly 5.2 4 1.64 0.82 - 2.46 13 4.92 4.10 - 5.74 29.76 -
02:50 32 43 19 East 7.8 8.9 13 5.25 exactly 5.2 4 1.64 0.82 - 2.46 13 4.92 4.10 - 5.74 29.77 -
03:50 32 43 20 ENE 11.7 13.4 13 5.58 exactly 5.6 5 3.28 2.46 - 4.10 13 4.92 4.10 - 5.74 29.77 +0.01
04:50 31 43 22 NE 11.7 13.4 13 5.91 exactly 5.9 5 3.28 2.46 - 4.10 13 4.92 4.10 - 5.74 29.79 +0.03
05:50 30 43 23 ENE 11.7 13.4 13 5.91 exactly 5.9 5 3.28 2.46 - 4.10 13 4.92 4.10 - 5.74 29.80 +0.03
06:50 29 43 19 ENE 11.7 13.4 13 5.91 exactly 5.9 4 3.28 2.46 - 4.10 13 4.92 4.10 - 5.74 29.81 +0.04
07:50 29 43 19 ENE 9.7 11.2 12 4.92 exactly 4.9 4 3.28 2.46 - 4.10 12 4.92 4.10 - 5.74 29.82 +0.03
08:50 29 43 23 ENE 9.7 11.2 13 5.58 exactly 5.6 4 3.28 2.46 - 4.10 13 4.92 4.10 - 5.74 29.84 +0.04
09:50 29 43 21 ENE 7.8 8.9 13 5.58 exactly 5.6 4 1.64 0.82 - 2.46 13 4.92 4.10 - 5.74 29.84 +0.04
10:50 29 43 21 ENE 3.9 4.5 13 5.25 exactly 5.2 4 1.64 0.82 - 2.46 13 4.92 4.10 - 5.74 29.85 +0.03
11:50 29 43 22 East 3.9 4.5 13 4.92 exactly 4.9 4 1.64 0.82 - 2.46 13 4.92 4.10 - 5.74 29.85 +0.01
12:50 29 43 25 NE 3.9 4.5 12 5.58 exactly 5.6 4 1.64 0.82 - 2.46 12 4.92 4.10 - 5.74 29.86 +0.01
13:50 29 43 23 East 3.9 4.5 13 5.25 exactly 5.2 4 1.64 0.82 - 2.46 13 4.92 4.10 - 5.74 29.87 +0.02
14:50 30 43 23 East 3.9 4.5 13 5.58 exactly 5.6 4 1.64 0.82 - 2.46 13 4.92 4.10 - 5.74 29.87 +0.02
15:50 30 43 21 East 1.9 2.2 13 5.91 exactly 5.9 3 1.64 0.82 - 2.46 13 6.56 5.74 - 7.38 29.88 +0.02
16:50 30 43 24 NNE 1.9 2.2 13 6.89 exactly 6.9 3 1.64 0.82 - 2.46 13 6.56 5.74 - 7.38 29.89 +0.02
17:50 29 43 31 SE 1.9 2.2 11 5.25 exactly 5.2 4 1.64 0.82 - 2.46 11 4.92 4.10 - 5.74 29.91 +0.03
18:50 29 43 37 ENE 1.9 2.2 13 5.91 exactly 5.9 4 1.64 0.82 - 2.46 13 6.56 5.74 - 7.38 29.92 +0.04
19:50 30 43 37 ENE 1.9 2.2 12 5.25 exactly 5.2 4 1.64 0.82 - 2.46 12 4.92 4.10 - 5.74 29.94 +0.04
20:50 30 43 39 ESE 3.9 4.5 12 5.58 exactly 5.6 4 1.64 0.82 - 2.46 12 4.92 4.10 - 5.74 29.95 +0.04
21:50 30 43 42 ENE 3.9 4.5 13 5.91 exactly 5.9 4 1.64 0.82 - 2.46 13 6.56 5.74 - 7.38 29.96 +0.04
22:50 30 43 41 South 5.8 6.7 13 5.25 exactly 5.2 3 1.64 0.82 - 2.46 13 4.92 4.10 - 5.74 29.96 +0.03
23:50 31 43 35 SE 3.9 4.5 13 5.25 exactly 5.2 4 1.64 0.82 - 2.46 13 4.92 4.10 - 5.74 29.97 +0.03
00:50 30 43 47 South 11.7 13.4 13 5.58 exactly 5.6 3 1.64 0.82 - 2.46 13 4.92 4.10 - 5.74 29.98 +0.02
01:50 30 43 53 SE 11.7 13.4 13 5.58 exactly 5.6 3 1.64 0.82 - 2.46 13 4.92 4.10 - 5.74 29.99 +0.03
02:50 29 43 64 SE 15.6 17.9 12 4.92 exactly 4.9 3 1.64 0.82 - 2.46 12 4.92 4.10 - 5.74 29.99 +0.01
03:50 29 43 68 SE 13.6 15.7 14 4.59 exactly 4.6 4 1.64 0.82 - 2.46 14 4.92 4.10 - 5.74 30.00 +0.02

Detailed Wave Spectra

Time Water Depth Wave Height Spectral Peak Period Average Wave Period Sampling Interval Wave Record
20:00 4619 ft 5.58 ft 13.8 sec 5.9 sec 0.6 sec 2400 sec
21:00 4619 ft 5.05 ft 12.9 sec 5.5 sec 0.6 sec 2400 sec
22:00 4619 ft 4.27 ft 12.9 sec 4.6 sec 0.6 sec 2400 sec
23:00 4619 ft 5.77 ft 12.9 sec 6.2 sec 0.6 sec 2400 sec
00:00 4619 ft 4.43 ft 12.9 sec 5.2 sec 0.6 sec 2400 sec
01:00 4619 ft 4.66 ft 12.9 sec 5.6 sec 0.6 sec 2400 sec
02:00 4619 ft 5.18 ft 12.9 sec 6.4 sec 0.6 sec 2400 sec
03:00 4619 ft 5.12 ft 12.9 sec 6.7 sec 0.6 sec 2400 sec
04:00 4619 ft 5.45 ft 12.9 sec 6.3 sec 0.6 sec 2400 sec
05:00 4619 ft 6.04 ft 12.9 sec 6.4 sec 0.6 sec 2400 sec
06:00 4619 ft 5.84 ft 12.9 sec 5.8 sec 0.6 sec 2400 sec
07:00 4619 ft 5.91 ft 12.9 sec 6.3 sec 0.6 sec 2400 sec
08:00 4619 ft 4.95 ft 12.1 sec 6.0 sec 0.6 sec 2400 sec
09:00 4619 ft 5.51 ft 12.9 sec 6.5 sec 0.6 sec 2400 sec
10:00 4619 ft 5.54 ft 12.9 sec 6.8 sec 0.6 sec 2400 sec
11:00 4619 ft 5.35 ft 12.9 sec 7.2 sec 0.6 sec 2400 sec
12:00 4619 ft 5.05 ft 12.9 sec 7.0 sec 0.6 sec 2400 sec
13:00 4619 ft 5.54 ft 12.1 sec 7.8 sec 0.6 sec 2400 sec
14:00 4619 ft 5.28 ft 12.9 sec 8.0 sec 0.6 sec 2400 sec
15:00 4619 ft 5.51 ft 12.9 sec 8.5 sec 0.6 sec 2400 sec
16:00 4619 ft 6.04 ft 12.9 sec 9.3 sec 0.6 sec 2400 sec
17:00 4619 ft 6.79 ft 12.9 sec 10.2 sec 0.6 sec 2400 sec
18:00 4619 ft 5.18 ft 11.4 sec 9.1 sec 0.6 sec 2400 sec
19:00 4619 ft 6.00 ft 12.9 sec 9.9 sec 0.6 sec 2400 sec
20:00 4619 ft 5.18 ft 12.1 sec 9.2 sec 0.6 sec 2400 sec
22:00 4619 ft 5.91 ft 12.9 sec 10.0 sec 0.6 sec 2400 sec
23:00 4619 ft 5.22 ft 12.9 sec 9.4 sec 0.6 sec 2400 sec
00:00 4619 ft 5.38 ft 12.9 sec 9.0 sec 0.6 sec 2400 sec
01:00 4619 ft 5.61 ft 12.9 sec 8.4 sec 0.6 sec 2400 sec
02:00 4619 ft 5.45 ft 12.9 sec 7.9 sec 0.6 sec 2400 sec
03:00 4619 ft 4.82 ft 12.1 sec 6.8 sec 0.6 sec 2400 sec